Overview Statistics Trail Chart Weather Telemetry Raw packets
 

This is the latest recevied weather packets stored in our database for station/object W5GMO. If no packets are shown the sender has not sent any weather packets the latest 10 day(s).

<< 101 102 103 104 105 106 107 >>
Time Temp. Humidity Pressure Rain* Wind** Luminosity Snow
1787878844 27.78° C 1% 1014.6 hPa 0 mm - 0 W/m² -
1787878542 28.33° C 1% 1014.6 hPa 0 mm - 0 W/m² -
1787878238 28.33° C 1% 1014.7 hPa 0 mm - 0 W/m² -
1787877934 28.33° C 1% 1014.7 hPa 0 mm - 0 W/m² -
1787877629 28.33° C 1% 1014.6 hPa 0 mm - 0 W/m² -
1787877325 28.33° C 1% 1014.5 hPa 0 mm - 0 W/m² -
1787877020 28.33° C 1% 1014.5 hPa 0 mm - 0 W/m² -
1787876715 28.33° C 1% 1014.2 hPa 0 mm - 0 W/m² -
1787876410 28.33° C 1% 1014 hPa 0 mm - 0 W/m² -
1787876110 28.33° C 1% 1013.9 hPa 0 mm - 0 W/m² -
1787875804 28.33° C 1% 1013.7 hPa 0 mm - 0 W/m² -
1787875503 28.89° C 1% 1013.6 hPa 0 mm - 0 W/m² -
1787875195 28.89° C 1% 1013.7 hPa 0 mm - 0 W/m² -
1787874895 28.89° C 1% 1013.7 hPa 0 mm - 0 W/m² -
1787874590 28.89° C 1% 1014.1 hPa 0 mm - 1 W/m² -
1787874285 28.89° C 1% 1014.2 hPa 0 mm - 1 W/m² -
1787873984 28.89° C 1% 1014.1 hPa 0 mm - 1 W/m² -
1787873678 28.89° C 1% 1014.1 hPa 0 mm - 2 W/m² -
1787873373 28.89° C 1% 1014.2 hPa 0 mm - 3 W/m² -
1787873078 28.89° C 1% 1014 hPa 0 mm - 3 W/m² -
1787872767 28.89° C 1% 1013.8 hPa 0 mm - 5 W/m² -
1787872463 29.44° C 1% 1013.6 hPa 0 mm - 8 W/m² -
1787872158 29.44° C 1% 1013.6 hPa 0 mm - 12 W/m² -
1787871857 29.44° C 1% 1013.6 hPa 0 mm - 17 W/m² -
1787871552 29.44° C 1% 1013.6 hPa 0 mm - 24 W/m² -

* Rain latest hour (hover to see other rain measurements)
** Current wind speed in m/s (hover to see current wind gust speed)